Location: *
(46.1866°S, 178.5290°W)
Time: 12:10:46
(UTC+00:00)

Cosmos 1937 Rocket - Pass Details

Date: 19 May 2021
Orbit: 746 x 781 km, 74.0° (Epoch: 13 June)

Event Time Altitude Azimuth Distance (km) Brightness Sun altitude
Rises 06:30:39 0° 199° (SSW) 3,260 6.9 -21.0°
Reaches altitude 10° 06:33:06 10° 194° (SSW) 2,322 6.1 -21.4°
Maximum altitude 06:38:17 56° 116° (ESE) 906 3.5 -22.3°
Enters shadow 06:38:41 54° 96° (E) 921 3.5 -22.4°
